942  
ASUS46 KSEW 280720  
RWRWA  
 
WASHINGTON REGIONAL WEATHER ROUNDUP  
NATIONAL WEATHER SERVICE SEATTLE WA  
1200 AM PDT THU OCT 28 2021  
 
NOTE:"FAIR" INDICATES FEW OR NO CLOUDS BELOW 12,000 FEET WITH NO  
SIGNIFICANT WEATHER AND/OR S TO VISIBILITY
.  
 
WAZ507-509-555>559-280800-  
SEATTLE, TACOMA, EVERETT, AND VICINITY  
 
CITY SKY/WX TMP DP RH WIND PRES REMARKS
 
EVERETT LGT RAIN 47 45 93 E10 30.19F  
BOEING FIELD LGT RAIN 48 48 100 CALM 30.19F  
RENTON LGT RAIN 49 46 90 CALM 30.19F  
SEATAC AIRPORT LGT RAIN 48 45 89 E6 30.17F  
JBLM-MCCHORD CLOUDY 48 48 100 E3 30.16F  
PUYALLUP CLOUDY 48 48 100 CALM 30.18F  
BREMERTON LGT RAIN 46 46 100 N3 30.18F FOG  
JBLM-FT LEWIS CLOUDY 48 46 91 CALM 30.16F  
TACOMA NARROWS LGT RAIN 46 46 100 E5 30.18F  

 
 
WAZ001-503-506-510-514-515-280800-  
NORTH INTERIOR  
 
CITY SKY/WX TMP DP RH WIND PRES REMARKS
 
BELLINGHAM LGT RAIN 51 45 79 S7 30.18F  
FRIDAY HARBOR LGT RAIN 49 45 86 E10 30.18F  
EASTSOUND CLOUDY 50 46 87 S8 30.16F  
PORT ANGELES LGT RAIN 48 46 93 CALM 30.15F  
EDIZ HOOK LGT RAIN 49 48 97 CALM 30.15F  
PORT TOWNSEND CLOUDY 48 46 93 SE12 30.15F  
NAS WHIDBEY LGT RAIN 50 46 86 E10 30.22F  
ARLINGTON LGT RAIN 48 44 86 E6 30.20F  
BURLINGTON CLOUDY 48 46 93 E3 30.20F  

 
 
WAZ020-022-039-040-504-511-512-280800-  
SOUTHWEST INTERIOR  
 
CITY SKY/WX TMP DP RH WIND PRES REMARKS
 
SHELTON LGT RAIN 47 46 97 NE3 30.14F FOG  
OLYMPIA LGT RAIN 49 48 97 E3 30.16F FOG  
CHEHALIS NOT AVBL  
KELSO CLOUDY 53 49 86 SE7 30.18F  
VANCOUVER CLOUDY 53 48 83 E7 30.21F  
SCAPPOOSE, OR CLOUDY 52 50 93 CALM 30.20F  
PORTLAND, OR CLOUDY 53 48 83 E7 30.21F  

 
 
WAZ021-516-517-280800-  
WASHINGTON COAST  
 
CITY SKY/WX TMP DP RH WIND PRES REMARKS
 
FORKS RAIN 47 46 97 E5 30.10F  
HOQUIAM LGT RAIN 51 48 89 E13 30.11F FOG  
ASTORIA, OR CLOUDY 51 50 96 E7 30.11F  

 
 
WAZ019-023-024-040-567>569-280800-  
CASCADE MOUNTAINS AND COLUMBIA GORGE  
 
CITY SKY/WX TMP DP RH WIND PRES REMARKS
 
STAMPEDE PASS FOG 35 33 92 VRB5 30.17F VSB 1  
TROUTDALE, OR CLOUDY 54 49 83 E8 30.21F  
HOOD RIVER, OR CLOUDY 48 46 93 CALM 30.24S  
THE DALLES, OR CLOUDY 54 47 77 CALM 30.24F  

 
 
WAZ026-027-041>044-520-521-280800-  
EAST SLOPES  
 
CITY SKY/WX TMP DP RH WIND PRES REMARKS
 
OMAK CLOUDY 50 34 54 S9 30.19S  
WENATCHEE CLOUDY 47 38 71 NW10 30.22R  
ELLENSBURG CLOUDY 46 39 76 N5 30.22R  
YAKIMA CLOUDY 49 45 86 SW6 30.21F  
SUNNYSIDE ARPT CLOUDY 50 44 79 E3 30.23F  
YAKIMA TC CLOUDY 48 38 68 CALM 30.19F  

 
 
WAZ028-034-035-280800-  
COLUMBIA BASIN  
 
CITY SKY/WX TMP DP RH WIND PRES REMARKS
 
EPHRATA CLOUDY 46 38 73 W3 30.21S  
MOSES LAKE CLOUDY 47 40 76 S5 30.21F  
PASCO CLOUDY 56 43 61 S9 30.26F  
RICHLAND ARPT CLOUDY 55 43 63 S7 30.25F  
HERMISTON, OR CLOUDY 53 47 79 S8 30.26F  

 
 
WAZ036>038-280800-  
NORTHEAST WASHINGTON  
 
CITY SKY/WX TMP DP RH WIND PRES REMARKS
 
SPOKANE GEIGER CLOUDY 45 37 73 SW13 30.23F  
SPOKANE FELTS MOCLDY 48 39 71 CALM 30.25S  
FAIRCHILD AFB CLOUDY 43 42 95 S10 30.21F  
COEURDALENE,ID PTCLDY 43 39 86 CALM 30.25F  
DEER PARK MOCLDY 41 36 82 CALM 30.24F  

 
 
WAZ029>033-280800-  
SOUTHEAST WASHINGTON  
 
CITY SKY/WX TMP DP RH WIND PRES REMARKS
 
PULLMAN MOCLDY 43 37 79 CALM 30.28F  
LEWISTON, ID CLOUDY 51 38 60 CALM 30.28S  
WALLA WALLA CLOUDY 51 41 68 CALM 30.27F  
PENDLETON, OR CLOUDY 48 44 86 E6 30.27F  

 
 
 
CLICK HERE TO GO TO PREVIOUS BULLETINS.

The Nexlab WA Page Main Text Page